Location: Moscow
(55.7500°N, 37.5830°E)
Time: 09:50:05
(UTC+03:00)

Transit 4A - Pass Details

Date: 01 December 2021
Orbit: 863 x 981 km, 66.8° (Epoch: 23 January)

Event Time Altitude Azimuth Distance (km) Brightness Sun altitude
Exits shadow 04:08:07 39° 118° (ESE) 1,416 9.0 -36.1°
Drops below altitude 10° 04:11:57 10° 128° (SE) 2,709 10.7 -35.6°
Sets 04:14:32 0° 130° (SE) 3,663 11.4 -35.2°
